Home   Weather   Topeka   Past weeks

Flag for USA Past Weather in Topeka, Kansas, USA — Yesterday and Last 2 Weeks

Now
30 °F

Sunny.


Feels Like: 20 °F
Forecast: 27 / 40 °F
Wind: 12 mph from Northwest

Location: Philip Billard Municipal Airport

Current Time: Dec 6, 2016 at 8:24:18 am

Latest Report: Dec 6, 2016 at 7:53 am


Visibility: 10 mi

Pressure: 30.04 "Hg

Humidity: 69%

Dew Point: 21 °F

Location of TopekaLocation

Past Weather in Topeka — Graph

°F

Topeka Temperature Yesterday

Maximum temperature yesterday: 51 °F (at 1:53 pm)
Minimum temperature yesterday: 30 °F (at 3:53 am)
Average temperature yesterday: 39 °F

High & Low Weather Summary for the Past Weeks

 TemperatureHumidityPressure
High62 °F (Nov 26, 1:53 pm)93% (Nov 22, 4:53 pm)30.47 "Hg (Nov 22, 4:53 pm)
Low21 °F (Dec 2, 6:53 am)31% (Nov 26, 2:53 pm)29.16 "Hg (Nov 28, 1:53 pm)
Average43 °F71%29.96 "Hg
* Reported Nov 21 6:53 am — Dec 6 6:53 am, Topeka, Weather by CustomWeather, © 2016

Note: Actual official high and low records may vary slightly from our data, if they occured in-between our weather recording intervals... More about our weather records

Advertising

Topeka Weather History for the Previous 24 Hours

Scroll right to see more
 ConditionsComfort  
Time TempWeatherWind HumidityBarometerVisibility
6:53 am
Tue, Dec 6
31 °FClear.9 mph67%30.02 "Hg10 mi
5:53 am32 °FPassing clouds.14 mph69%29.99 "Hg10 mi
4:53 am34 °FOvercast.12 mph73%29.94 "Hg10 mi
3:53 am36 °FOvercast.15 mph67%29.93 "Hg10 mi
2:53 am37 °FOvercast.12 mph76%29.89 "Hg10 mi
1:53 am40 °FOvercast.18 mph83%29.84 "Hg10 mi
12:53 am36 °FMostly cloudy.3 mph89%29.81 "Hg10 mi
11:53 pm
Mon, Dec 5
31 °FOvercast.No wind89%29.80 "Hg10 mi
10:53 pm34 °FClear.No wind85%29.79 "Hg10 mi
9:53 pm33 °FClear.3 mph88%29.77 "Hg10 mi
8:53 pm36 °FClear.6 mph85%29.75 "Hg10 mi
7:53 pm41 °FClear.3 mph76%29.74 "Hg10 mi
6:53 pm41 °FClear.7 mph74%29.74 "Hg10 mi
5:53 pm44 °FClear.5 mph68%29.72 "Hg10 mi
4:53 pm47 °FSunny.12 mph64%29.72 "Hg10 mi
3:53 pm51 °FSunny.13 mph56%29.73 "Hg10 mi
2:53 pm51 °FSunny.17 mph59%29.72 "Hg10 mi
1:53 pm51 °FSunny.15 mph61%29.75 "Hg10 mi
12:53 pm50 °FSunny.15 mph68%29.78 "Hg10 mi
11:53 am47 °FPassing clouds.15 mph77%29.82 "Hg10 mi
10:53 am46 °FSunny.15 mph73%29.85 "Hg10 mi
9:53 am43 °FSunny.13 mph79%29.85 "Hg10 mi
8:53 am38 °FSunny.10 mph86%29.87 "Hg10 mi
Weather by CustomWeather, © 2016

See weather overviewHow to use our weather pages